Regional Weather Roundup
Issued by NWS Portland, ME

Current Version | Previous Version | Text Only | Print | Product List | Glossary Off
Versions: 1 2 3 4 5 6 7 8 9 10 11 12 13 14 15 16 17 18 19 20 21 22 23 24 25 26 27 28 29 30 31 32 33 34 35 36 37 38 39 40 41 42 43 44 45 46 47 48 49 50
000 ASUS41 KGYX 231410 RWRGYX WEATHER ROUNDUP FOR MAINE AND NEW HAMPSHIRE NATIONAL WEATHER SERVICE GRAY ME 1000 AM EDT SAT JUN 23 2018 MEZ002-005-006-010-012-015-018-020-021-024-026-027-029-231500- MAINE CITY SKY/WX TMP DP RH WIND PRES REMARKS PORTLAND CLOUDY 62 58 86 SE3 30.03F SANFORD CLOUDY 61 55 81 E7 30.01F BAR HARBOR FAIR 63 49 60 SW9 30.06R WISCASSET FAIR 61 55 81 CALM 30.05F ROCKLAND FAIR 59 55 87 CALM 30.06R FRYEBURG CLOUDY 63 55 75 NE3 30.02F LEWISTONAUBURN LGT RAIN 62 50 64 S6 30.03F AUGUSTA CLOUDY 62 48 60 S7 30.03F WATERVILLE FAIR 62 51 67 VRB3 30.02R BANGOR PTSUNNY 67 50 54 S12 30.03S GREENVILLE N/A 60 52 74 SE6 29.99S MILLINOCKET FAIR 65 53 65 VRB5 30.00F HOULTON FAIR 67 54 63 SW8 29.97F PRESQUE ISLE FAIR 63 53 70 SE7 29.97F FRENCHVILLE FAIR 69 51 52 S9 29.92F CARIBOU FAIR 64 52 64 S7 29.95S $$ NHZ002-005-008-009-011-012-014-231500- NEW HAMPSHIRE CITY SKY/WX TMP DP RH WIND PRES REMARKS PORTSMOUTH CLOUDY 62 53 70 E7 29.99F ROCHESTER CLOUDY 61 56 83 CALM 30.00F NASHUA CLOUDY 65 52 62 E7 30.00S MANCHESTER CLOUDY 64 50 60 E6 29.99S CONCORD CLOUDY 63 53 70 NE3 30.00F LACONIA CLOUDY 63 50 62 CALM 30.01F PLYMOUTH CLOUDY 61 55 81 CALM 30.00F BERLIN PTSUNNY 63 54 72 CALM 30.00F WHITEFIELD CLOUDY 63 56 78 CALM 30.01R JAFFREY CLOUDY 61 54 77 VRB5 29.99F KEENE CLOUDY 64 52 64 NW5 29.98F LEBANON CLOUDY 66 50 56 NE5 29.98F MT WASHINGTON LGT RAIN 45 32 61 S20 N/A $$ VTZ005-007-008-231500- VERMONT CITY SKY/WX TMP DP RH WIND PRES REMARKS ST JOHNSBURY N/A 60 56 86 MISG 29.98F MONTPELIER CLOUDY 61 54 77 S6 30.02F BURLINGTON LGT RAIN 67 55 65 S7 29.94F $$ MAZ007-012-024-CTZ003-RIZ002-NYZ038-NYZ072-231500- SOUTHERN NEW ENGLAND AND NY CITY SKY/WX TMP DP RH WIND PRES REMARKS BOSTON CLOUDY 64 55 72 E14 29.99S WORCESTER CLOUDY 59 48 67 E9 29.98S NANTUCKET LGT RAIN 60 59 96 E12G23 29.93F FOG PROVIDENCE LGT RAIN 62 57 83 SE7 29.97S HARTFORD CLOUDY 64 54 69 NE7 29.95S ALBANY CLOUDY 66 47 50 E3 29.93F NEW YORK CITY CLOUDY 65 56 72 NE13 29.88F $$ ANZ081-ANZ082-ANZ150-NHZ014-MEZ023>029-231500- COASTAL MARINE OBSERVATIONS STATION/POSITION TIME TEMP WIND PRES WAVE AIR SEA DIR/SP/G HT/PER (UTC) (F) (DEG/KT/KT) (MB) (FT/S) MOUNT DESERT ROC 1400 57 130/ 5/ 5 1018.5R MATINICUS ROCK 1400 57 130/ 8/ 8 1017.3F ISLE OF SHOALS 1400 60 70/ 10/ 11 1015.5F JEFFREYS LEDGE 1306 62 N/A 2/13 $$ .............KEY.............. WCI - WIND CHILL TC - TEMPERATURE IN CELSIUS VSB - VISIBILITY IN MILES HX - HEAT INDEX FAIR- INDICATES FEW OR NO CLOUDS BELOW 12,000 FT, WITH NO SIGNIFICANT WEATHER AND/OR OBSTRUCTIONS TO VISIBILITY.

USA.gov is the U.S. government's official web portal to all federal, state and local government web resources and services.